Nashua, NH

4:19 AM EDT on May 25, 2017 (GMT -0400)
Boire

Weather History for KASH - April, 2013

Change the Weather History Date:

Wednesday, April 3, 2013

  Actual Average Record
Temperature  
Mean Temperature 37 °F -  
Max Temperature 45 °F 52 °F 74 °F (1981)
Min Temperature 29 °F 31 °F 10 °F (1954)
Degree Days  
Heating Degree Days 28    
Moisture  
Dew Point 7 °F    
Average Humidity 32    
Maximum Humidity 47    
Minimum Humidity 16    
Precipitation  
Precipitation 0.00 in - - ()
Sea Level Pressure  
Sea Level Pressure 30.73 in    
Wind  
Wind Speed 12 mph (WNW)    
Max Wind Speed 21 mph    
Max Gust Speed 32 mph    
Visibility 10 miles    
Events      
Averages and records for this station are not official NWS values.
T = Trace of Precipitation, MM = Missing Value Source: NWS Daily Summary

Daily Weather History Graph

Daily Weather History Graph

Search for Another Location

Airport or City:

Trip Planner

Search our weather history database for the weather conditions in past years. The results will help you decide how hot, cold, wet, or windy it might be!

Date:

Astronomy

Apr. 03, 2013 Rise Set
Actual Time 6:24 AM EDT 7:14 PM EDT
Civil Twilight 5:55 AM EDT 7:43 PM EDT
Nautical Twilight 5:21 AM EDT 8:17 PM EDT
Astronomical Twilight 4:46 AM EDT 8:53 PM EDT
Moon 2:11 AM EDT (4/3) 12:14 PM EDT (4/3)
Length of Visible Light 13h 47m
Length of Day
12h 50m
Last Quarter, 45% of the Moon is Illuminated
Apr 3
Last Quarter
Apr 10
New
Apr 18
First Quarter
Apr 25
Full
May 2
Last Quarter

Hourly Weather History & Observations

Time (EDT) Temp. Windchill Dew Point Humidity Pressure Visibility Wind Dir Wind Speed Gust Speed Precip Events Conditions
12:51 AM 31.1 °F 22.4 °F 12.0 °F 45% 30.67 in 10.0 mi West 10.4 mph 19.6 mph N/A   Clear
1:51 AM 31.1 °F 23.1 °F 13.1 °F 47% 30.68 in 10.0 mi West 9.2 mph 18.4 mph N/A   Clear
2:51 AM 31.1 °F 22.4 °F 11.1 °F 43% 30.68 in 10.0 mi WNW 10.4 mph 24.2 mph N/A   Clear
3:51 AM 30.0 °F 24.1 °F 10.0 °F 43% 30.68 in 10.0 mi West 5.8 mph - N/A   Clear
4:51 AM 29.1 °F 21.3 °F 9.1 °F 43% 30.69 in 10.0 mi West 8.1 mph - N/A   Clear
5:51 AM 29.1 °F 21.3 °F 8.1 °F 41% 30.71 in 10.0 mi WNW 8.1 mph - N/A   Clear
6:51 AM 29.1 °F 24.1 °F 9.1 °F 43% 30.73 in 10.0 mi Variable 4.6 mph - N/A   Clear
7:51 AM 31.1 °F 23.1 °F 10.0 °F 41% 30.74 in 10.0 mi West 9.2 mph 18.4 mph N/A   Clear
8:51 AM 32.9 °F 22.8 °F 9.1 °F 37% 30.73 in 10.0 mi West 15.0 mph 23.0 mph N/A   Clear
9:51 AM 34.9 °F 23.6 °F 8.1 °F 33% 30.72 in 10.0 mi WNW 20.7 mph 28.8 mph N/A   Clear
11:51 AM 39.9 °F 30.5 °F 6.1 °F 25% 30.71 in 10.0 mi WNW 19.6 mph 27.6 mph N/A   Clear
12:51 PM 41.9 °F 33.4 °F 4.1 °F 21% 30.70 in 10.0 mi WNW 18.4 mph 29.9 mph N/A   Clear
1:51 PM 43.0 °F 35.1 °F 3.0 °F 19% 30.70 in 10.0 mi WNW 17.3 mph 25.3 mph N/A   Clear
2:51 PM 45.0 °F 37.6 °F 4.1 °F 19% 30.70 in 10.0 mi NW 17.3 mph 24.2 mph N/A   Clear
3:51 PM 45.9 °F 38.5 °F 2.1 °F 16% 30.69 in 10.0 mi WNW 18.4 mph 32.2 mph N/A   Clear
4:51 PM 45.0 °F 37.4 °F 2.1 °F 17% 30.69 in 10.0 mi WNW 18.4 mph 29.9 mph N/A   Clear
5:51 PM 43.9 °F 36.2 °F 2.1 °F 18% 30.71 in 10.0 mi NW 17.3 mph 26.5 mph N/A   Clear
6:51 PM 41.9 °F 33.4 °F 3.0 °F 20% 30.75 in 10.0 mi NW 18.4 mph 27.6 mph N/A   Clear
7:51 PM 39.9 °F 33.9 °F 6.1 °F 25% 30.79 in 10.0 mi WNW 9.2 mph - N/A   Clear
8:51 PM 37.9 °F 29.2 °F 8.1 °F 29% 30.84 in 10.0 mi WNW 15.0 mph 20.7 mph N/A   Clear
9:51 PM 36.9 °F 28.2 °F 9.1 °F 32% 30.87 in 10.0 mi WNW 13.8 mph 19.6 mph N/A   Clear
11:51 PM 34.9 °F 28.3 °F 12.0 °F 39% 30.92 in 10.0 mi WNW 8.1 mph - N/A   Clear